Flag for Saudi Arabia Weather past 2 weeks in Medina, Saudi Arabia

Now
75 °F

Sunny.


Feels Like: 77 °F
Forecast: 54 / 87 °F
Wind: No wind

Location: Madinah

Current Time: Jan 31, 2015 at 11:43:21 AM

Latest Report: Jan 31, 2015 at 11:00 AM


Visibility: 10 mi

Pressure: 30.18 "Hg

Humidity: 39%

Dew point: 48 °F

Location of MedinaLocation

Historic Weather in Medina — Graph

°F

Medina temperature yesterday

Maximum temperature yesterday: 84 °F (at 3:00 PM)
Minimum temperature yesterday: 64 °F (at 7:00 AM)
Average temperature yesterday: 75 °F

Past Weeks' High & Low Weather Summary

 TemperatureHumidityPressure
High88 °F (Jan 25, 3:00 PM)73% (Jan 30, 7:00 AM)30.33 "Hg (Jan 30, 7:00 AM)
Low46 °F (Jan 20, 6:00 AM)0% (Jan 25, 1:00 PM)29.92 "Hg (Jan 28, 3:00 PM)
Average67 °F19%30.13 "Hg
* Reported Jan 16 10:00 AM — Jan 31 10:00 AM, Medina, Weather by CustomWeather, © 2014

Note: Actual official high and low records may vary slightly from our data, if they occured in-between our weather recording intervals... More about our weather records

Advertising

Medina weather history for previous 24 hours

 ConditionsComfort  
Time TempWeatherWind HumidityBarometerVisibility
10:00 AM
Jan 31
72 °FSunny.No wind44%30.18 "Hg6 mi
9:00 AM66 °FSunny.No wind52%30.18 "Hg6 mi
8:00 AM63 °FClear.3 mph59%30.15 "Hg6 mi
7:00 AM63 °FClear.3 mph59%30.12 "Hg10 mi
6:00 AM64 °FClear.5 mph56%30.12 "Hg10 mi
5:00 AM64 °FClear.No wind56%30.12 "Hg10 mi
4:00 AM68 °FClear.9 mph56%30.09 "Hg10 mi
3:00 AM66 °FClear.8 mph52%30.09 "Hg10 mi
2:00 AM72 °FClear.9 mph47%30.12 "Hg10 mi
1:00 AM73 °FClear.9 mph44%30.12 "Hg10 mi
12:00 AM75 °FClear.13 mph39%30.12 "Hg10 mi
11:00 PM
Jan 30
75 °FClear.9 mph41%30.12 "Hg10 mi
10:00 PM77 °FClear.10 mph42%30.12 "Hg10 mi
9:00 PM77 °FClear.3 mph36%30.09 "Hg10 mi
8:00 PM79 °FClear.12 mph32%30.07 "Hg10 mi
7:00 PM79 °FClear.12 mph30%30.07 "Hg10 mi
6:00 PM81 °FSunny.14 mph30%30.04 "Hg10 mi
5:00 PM82 °FSunny.21 mph28%30.04 "Hg10 mi
4:00 PM84 °FSunny.16 mph27%30.04 "Hg10 mi
3:00 PM84 °FSunny.18 mph29%30.01 "Hg10 mi
2:00 PM82 °FClear.18 mph30%30.04 "Hg6 mi
1:00 PM82 °FClear.16 mph35%30.04 "Hg6 mi
12:00 PM79 °FClear.12 mph42%30.07 "Hg5 mi
11:00 AM75 °FClear.9 mph47%30.09 "Hg5 mi
Weather by CustomWeather, © 2014

See weather overviewHow to use our weather pages